Flag for Colombia Weather past 2 weeks in Villavicencio, Colombia

Now
64 °F

Broken clouds.


Feels Like: 64 °F
Forecast: 64 / 94 °F
Wind: 5 mph from North

Location: Bogota / Eldorado


UV Index: 10 (Very high)

Visibility: N/A


Pressure: 30.34 "Hg

Humidity: 60%

Dew point: 50 °F

Location of VillavicencioLocation

Historic Weather in Villavicencio

°F

Villavicencio temperature yesterday

Maximum temperature yesterday: 63 °F (at 10:00 AM)
Minimum temperature yesterday: 54 °F (at 12:00 AM)
Average temperature yesterday: 57 °F

Past Weeks' High & Low Weather Summary

 TemperatureHumidityPressure
High72 °F (Apr 14, 12:00 PM)100% (Apr 4, 12:00 AM)30.41 "Hg (Apr 4, 12:00 AM)
Low43 °F (Apr 13, 4:00 AM)35% (Apr 9, 2:00 PM)30.03 "Hg (Apr 1, 2:00 PM)
Average58 °F73%30.32 "Hg
* Reported Apr 1 10:00 AM — Apr 16 10:00 AM, Villavicencio, Weather by CustomWeather, © 2014

Note: Actual official high and low records may vary slightly from our data, if they occured in-between our weather recording intervals... More about our weather records

Advertising

Historic Weather Conditions — Data for Previous 24 hours

 ConditionsComfort  
Time TempWeatherWind HumidityBarometerVisibility
10:00 AM
Apr 16
63 °FBroken clouds.2 mph68%30.36 "HgN/A
9:00 AM59 °FBroken clouds.7 mph77%30.36 "HgN/A
8:00 AM55 °FPartly sunny.5 mph88%30.34 "HgN/A
6:00 AM50 °FPartly sunny.3 mph100%30.30 "HgN/A
5:00 AM52 °FPassing clouds.2 mph94%30.28 "HgN/A
4:00 AM54 °FPartly cloudy.2 mph94%30.28 "HgN/A
3:00 AM52 °FPassing clouds.2 mph94%30.30 "HgN/A
2:00 AM54 °FPassing clouds.2 mph94%30.30 "HgN/A
1:00 AM54 °FPartly cloudy.2 mph94%30.32 "HgN/A
12:00 AM54 °FPassing clouds.5 mph94%30.34 "HgN/A
11:00 PM
Apr 15
54 °FDrizzle. Fog.3 mph100%30.35 "Hg3 mi
10:00 PM54 °FPartly cloudy.2 mph94%30.35 "HgN/A
9:00 PM54 °FScattered showers. Partly cloudy.2 mph94%30.33 "HgN/A
8:00 PM55 °FScattered showers. Partly cloudy.3 mph94%30.31 "HgN/A
6:00 PM55 °FScattered showers. Partly sunny.2 mph94%30.27 "Hg4 mi
5:00 PM55 °FDrizzle. Partly sunny.3 mph94%30.25 "Hg4 mi
4:00 PM57 °FDrizzle. Partly sunny.5 mph88%30.24 "Hg4 mi
3:00 PM57 °FScattered showers. Partly sunny.8 mph88%30.25 "HgN/A
2:00 PM57 °FPartly sunny.7 mph88%30.25 "HgN/A
1:00 PM59 °FScattered clouds.5 mph77%30.27 "HgN/A
12:00 PM61 °FScattered clouds.8 mph72%30.29 "HgN/A
11:00 AM61 °FScattered clouds.8 mph68%30.30 "HgN/A
Weather by CustomWeather, © 2014

See weather overview